This is the latest recevied weather packets stored in our database for station/object VK4AB-13. If no packets are shown the sender has not sent any weather packets the latest 10 day(s).
| Time | Temp. | Humidity | Pressure | Rain* | Wind** | Luminosity | Snow |
|---|---|---|---|---|---|---|---|
| 1788154681 | 74° F | 58% | 769.6 mmHg | 0 in | - | 378 W/m² | - |
| 1788154381 | 74° F | 57% | 769.6 mmHg | 0 in | - | 401 W/m² | - |
| 1788154081 | 75° F | 57% | 769.6 mmHg | 0 in | - | 411 W/m² | - |
| 1788153781 | 75° F | 56% | 769.6 mmHg | 0 in | - | 420 W/m² | - |
| 1788153481 | 75° F | 55% | 769.7 mmHg | 0 in | - | 431 W/m² | - |
| 1788153181 | 75° F | 55% | 769.7 mmHg | 0 in | - | 454 W/m² | - |
| 1788152881 | 75° F | 55% | 769.8 mmHg | 0 in | - | 533 W/m² | - |
| 1788152581 | 75° F | 55% | 769.8 mmHg | 0 in | - | 533 W/m² | - |
| 1788152341 | 75° F | 55% | 769.7 mmHg | 0 in | - | 496 W/m² | - |
| 1788152281 | 75° F | 55% | 769.7 mmHg | 0 in | - | 496 W/m² | - |
| 1788151981 | 75° F | 54% | 769.7 mmHg | 0 in | - | 125 W/m² | - |
| 1788151681 | 76° F | 52% | 769.9 mmHg | 0 in | - | 90 W/m² | - |
| 1788151381 | 77° F | 52% | 769.8 mmHg | 0 in | - | 555 W/m² | - |
| 1788151081 | 77° F | 49% | 769.8 mmHg | 0 in | - | 568 W/m² | - |
| 1788150781 | 76° F | 49% | 769.8 mmHg | 0 in | - | 573 W/m² | - |
| 1788150481 | 76° F | 49% | 769.9 mmHg | 0 in | - | 582 W/m² | - |
| 1788150181 | 77° F | 48% | 769.9 mmHg | 0 in | - | 580 W/m² | - |
| 1788149881 | 77° F | 47% | 769.9 mmHg | 0 in | - | 580 W/m² | - |
| 1788149581 | 78° F | 46% | 769.9 mmHg | 0 in | - | 272 W/m² | - |
| 1788149281 | 78° F | 47% | 769.9 mmHg | 0 in | - | 793 W/m² | - |
| 1788148981 | 77° F | 47% | 770 mmHg | 0 in | - | 714 W/m² | - |
| 1788148681 | 77° F | 47% | 770 mmHg | 0 in | - | 729 W/m² | - |
| 1788148381 | 77° F | 47% | 770 mmHg | 0 in | - | 689 W/m² | - |
| 1788148081 | 77° F | 47% | 770.1 mmHg | 0 in | - | 677 W/m² | - |
| 1788147781 | 77° F | 47% | 770.1 mmHg | 0 in | - | 696 W/m² | - |
* Rain latest hour (hover to see other rain measurements)
** Current wind speed in m/s (hover to see current wind gust speed)